Location: Bismarck
(46.7731°N, 100.8200°W)
Time: 22:34:36
(UTC-06:00)

ISS - Pass Details

Date: 27 November 2017
Orbit: 403 x 407 km, 51.6° (Epoch: 12 December)

Event Time Altitude Azimuth Distance (km) Brightness Sun altitude
Rises 23:53:07 0° 294° (WNW) 2,329 - -63.3°
Reaches altitude 10° 23:55:15 10° 300° (WNW) 1,467 - -63.4°
Maximum altitude 23:58:26 46° 16° (NNE) 552 - -63.6°
Drops below altitude 10° 00:01:37 10° 92° (E) 1,460 - -63.7°
Sets 00:03:45 0° 98° (E) 2,317 - -63.8°
